Vertical_Velocity
1 -0 -1 -0 -1 -1 -2 -1 -2 -1 -0 -0 -0 0 -0 0 1 -0 -0 -0 -1 -1 -1 -0 -0 -0 0 0 0 1 1 1 0 -0 0 1 0 -1 -2 -1 0 -1 -0
0 1 -0 -1 -1 -1 -1 -1 -1 -1 -1 -0 -1 -0 -1 -0 -0 -1 -1 -1 -2 -1 -0 -0 -0 -1 -2 -1 -1 -1 -1 -1 -1 -1 -1 -0 1 0 -0 -1 -1 0 -1
-0 0 2 0 -1 -1 -1 -1 -0 -0 0 -0 -0 -1 -0 -1 -1 -1 -1 -2 -2 -1 -1 -1 -1 -1 -1 0 1 0 -0 -1 -1 -2 -3 -3 -1 -0 -1 -2 -2 -1 -2
-0 -1 -0 0 -0 0 -0 -0 -1 -0 -0 0 -0 0 0 -0 -1 -1 -1 -1 -1 -1 -1 -1 -1 -1 -1 -1 -0 -2 -2 -3 -1 0 -1 -2 -3 -2 -2 0 1 1 2
-1 -1 -1 -0 -0 -0 -1 -1 -0 0 -1 0 0 0 -0 -0 -1 -1 -1 -1 0 -0 -0 -1 -1 -1 -2 -2 -0 -2 -2 -4 -3 -2 -0 -0 -2 -2 -1 2 0 1 1
-1 0 -1 -1 0 1 -1 -0 -1 -2 -1 -0 0 -0 -1 -1 -1 -0 -0 -1 0 0 -0 -0 -1 -0 -1 -1 0 -2 -2 -2 -2 -2 0 0 0 -3 -2 1 -0 1 -0
1 0 0 -1 -1 -1 -2 -0 -1 -3 -1 -1 -0 0 -0 0 0 -0 -1 -2 -1 -0 -0 -1 -1 -1 -1 0 0 -0 0 -1 -2 -3 -3 -1 1 0 1 -2 2 2 3
0 -0 0 1 -0 -2 -1 -1 -1 -2 -1 -0 -1 0 0 1 0 0 -0 -1 -1 0 -0 -1 -1 -1 -1 0 1 -0 -0 -1 -1 -3 -2 -3 -2 -2 -0 -0 -0 2 -1
1 -0 0 0 0 -1 -0 0 -0 -1 -0 1 0 -0 0 -1 -0 0 -0 0 -0 -0 0 -0 0 -1 -1 0 1 -0 -1 -1 -2 -2 -3 -4 -3 -2 -2 -2 -2 -1 -1
-1 -1 -2 -1 -1 -1 0 -2 0 -0 -1 1 2 0 1 1 -1 1 0 -1 -0 -0 1 0 -0 -0 -1 0 1 1 -1 -3 -3 -3 -2 -4 -5 -4 -4 -2 -2 -1 -2
-0 1 1 -1 0 1 -1 -1 1 -1 1 0 2 1 1 1 0 1 -1 -1 -1 -1 -0 -0 -2 -0 -1 -2 1 -1 -2 -2 -2 -1 -4 -3 -5 -3 -4 -3 -3 -3 -3
0 -0 -1 1 0 -1 -2 -0 -1 0 0 0 1 -0 1 -0 -0 1 -1 0 -0 0 -1 -1 -0 -2 -1 -2 -1 -1 -3 -2 -3 -2 -2 -3 -4 -3 -2 -4 -4 -4 -3
0 1 1 1 -2 -2 -2 -1 -1 1 0 -0 0 0 0 -2 1 -0 -1 1 -0 0 -0 -1 0 -0 -1 -1 -0 -2 -3 -2 -3 -3 -3 -4 -2 -2 -1 -1 -5 -1 -3
2 1 -0 -3 -1 -1 -2 -2 1 -1 -1 2 -1 1 3 -0 -1 -1 -1 2 -0 -1 0 -1 -2 -1 -1 -3 -1 0 -2 -1 -5 -2 -2 -2 -1 -2 -2 0 -2 -5 -4
-1 -1 -2 -2 0 -1 -1 -2 1 -3 -2 -1 1 1 -4 2 -0 -1 -0 2 -1 -1 1 -1 -1 -1 0 -2 -1 -1 -4 0 -1 -5 -5 -4 -1 0 -0 0 1 0 -4
2 0 -0 -1 -1 -2 -1 -1 0 -1 -1 -1 1 1 2 2 -1 -1 -0 1 -1 -0 0 -1 -1 -2 0 -1 -1 -2 -1 1 -2 -1 -1 -1 -1 0 -0 1 -1 -0 3
2 3 -0 -1 -1 -1 -2 -2 -1 -1 -1 -2 1 -2 -0 -2 2 -0 0 1 -0 -1 -0 -2 -2 -1 -0 -2 2 -0 -1 1 1 -2 -6 -1 1 0 0 0 -1 -1 -0
1 4 -2 -1 -1 -0 -1 -2 -1 -1 -2 1 -1 2 1 1 0 -1 1 1 0 1 -2 0 -1 -1 -2 -3 -1 -1 -1 -1 1 -0 -1 -2 -0 1 0 0 2 1 1
3 3 -1 0 -1 1 -0 -1 -1 0 -1 0 1 -0 -0 -0 1 1 0 0 -0 -0 0 -3 -3 -2 0 -2 -3 -1 -2 -0 1 -1 -3 -1 2 1 0 1 2 1 1
-2 -2 1 1 -2 1 0 -1 0 0 -1 0 1 -1 1 0 2 0 1 0 -1 -1 -1 -2 -2 -2 -2 -2 -2 -0 -2 -1 -2 -2 -4 -3 -2 1 1 -0 -0 0 0
5 4 -1 -1 -1 -1 -1 -1 1 0 0 0 -0 -3 1 1 2 -1 -2 -1 -0 1 1 -0 -0 0 -1 -2 -1 -1 -4 -1 -1 -0 -0 -1 -2 -0 -0 2 3 0 -1
-1 2 5 2 -1 -3 -2 -0 0 0 1 1 2 -1 -2 -2 -2 -1 0 -0 1 -1 0 0 2 2 -1 -3 -2 -3 -1 -1 -0 -3 1 -0 -2 -4 -2 1 1 1 1
14 -1 2 -2 -2 -2 -0 -0 1 0 1 2 1 -0 -1 1 1 -1 -0 0 0 1 2 1 1 0 -1 1 -2 -2 -2 -0 -3 -2 -0 2 2 -0 -2 -1 1 0 2
-6 -3 1 -2 -4 -3 -1 0 1 -0 -0 1 1 1 0 -0 -1 -1 0 -0 1 -1 1 -1 1 1 -2 -1 -2 -2 -2 -3 -3 3 -4 0 4 4 -1 -5 -1 2 1
-3 5 -6 -1 -2 -2 -1 1 -0 -2 -0 0 0 -0 -1 -0 0 1 2 2 1 1 1 0 -1 -2 -1 -2 -0 -1 -2 -1 -2 -1 6 -5 3 0 4 -2 -2 -4 1
5 -4 -2 -0 -2 -0 -1 -1 -1 -1 0 -0 1 1 1 -0 2 3 1 -2 -2 -2 -3 -1 -2 -1 1 -1 -1 -2 -2 -3 -4 -5 3 -3 3 -8 8 4 -1 -3 -3
Height
5882 5882 5882 5883 5883 5883 5882 5881 5881 5882 5882 5883 5883 5883 5882 5882 5881 5880 5879 5878 5877 5875 5873 5872 5871 5870 5870 5868 5867 5866 5866 5865 5863 5862 5861 5859 5857 5855 5854 5853 5851 5850 5848
5882 5882 5882 5883 5883 5882 5882 5882 5882 5882 5883 5883 5883 5883 5883 5882 5881 5880 5879 5878 5876 5874 5872 5871 5870 5869 5868 5867 5866 5865 5865 5864 5862 5861 5859 5857 5856 5854 5852 5851 5849 5847 5845
5881 5882 5883 5882 5882 5882 5882 5882 5882 5883 5883 5883 5883 5883 5883 5882 5881 5880 5879 5877 5876 5874 5872 5871 5870 5869 5868 5867 5866 5865 5864 5863 5862 5860 5858 5856 5854 5852 5850 5847 5845 5843 5841
5880 5881 5882 5882 5882 5882 5882 5883 5883 5883 5883 5884 5884 5883 5883 5882 5881 5880 5879 5877 5875 5874 5872 5871 5870 5869 5868 5867 5865 5865 5863 5861 5860 5857 5855 5853 5850 5847 5845 5843 5841 5838 5836
5879 5880 5881 5882 5882 5882 5882 5882 5883 5883 5884 5884 5883 5883 5883 5882 5881 5880 5878 5877 5875 5873 5872 5871 5869 5868 5867 5866 5865 5863 5861 5859 5857 5854 5852 5848 5844 5842 5839 5836 5834 5831 5829
5878 5879 5880 5881 5882 5882 5882 5883 5883 5884 5883 5883 5883 5883 5882 5881 5881 5879 5878 5876 5874 5873 5872 5870 5869 5868 5866 5865 5863 5861 5859 5856 5853 5850 5846 5843 5838 5834 5831 5829 5826 5824 5823
5876 5878 5879 5879 5880 5880 5881 5882 5882 5883 5883 5883 5883 5882 5881 5881 5880 5878 5876 5875 5873 5872 5871 5869 5868 5866 5864 5863 5861 5858 5855 5852 5849 5845 5841 5837 5832 5828 5824 5821 5818 5817 5815
5874 5876 5877 5877 5878 5879 5880 5881 5882 5882 5883 5882 5882 5881 5881 5879 5878 5877 5875 5873 5872 5870 5869 5868 5866 5864 5862 5860 5858 5855 5852 5849 5845 5841 5836 5832 5828 5823 5817 5814 5812 5809 5807
5871 5873 5875 5876 5876 5877 5878 5879 5880 5880 5880 5880 5880 5879 5879 5878 5876 5875 5874 5872 5871 5869 5867 5866 5864 5862 5860 5858 5855 5852 5849 5845 5841 5837 5832 5827 5823 5818 5812 5810 5808 5805 5802
5869 5871 5873 5874 5874 5875 5876 5877 5877 5877 5877 5877 5877 5876 5876 5875 5875 5873 5872 5870 5869 5867 5865 5863 5861 5859 5857 5855 5852 5848 5845 5841 5837 5832 5828 5824 5818 5813 5809 5807 5804 5801 5798
5865 5867 5869 5871 5872 5872 5873 5874 5874 5874 5874 5874 5874 5873 5873 5873 5872 5871 5869 5868 5867 5865 5863 5861 5859 5856 5854 5851 5848 5845 5841 5837 5833 5829 5826 5821 5816 5811 5807 5804 5801 5798 5795
5860 5863 5865 5868 5869 5869 5870 5870 5871 5870 5870 5870 5870 5870 5870 5870 5869 5868 5867 5866 5864 5862 5860 5857 5855 5853 5850 5847 5844 5841 5837 5834 5830 5826 5822 5818 5814 5809 5805 5802 5799 5797 5794
5855 5859 5861 5863 5865 5866 5866 5866 5866 5866 5866 5866 5867 5866 5866 5866 5865 5865 5864 5863 5861 5858 5856 5854 5851 5849 5846 5843 5840 5837 5833 5830 5826 5822 5819 5815 5811 5806 5803 5800 5797 5794 5792
5851 5855 5857 5859 5861 5862 5862 5862 5861 5862 5862 5862 5862 5862 5862 5863 5862 5861 5860 5859 5857 5854 5852 5849 5847 5844 5841 5838 5835 5832 5829 5825 5822 5818 5815 5812 5808 5803 5800 5797 5794 5791 5789
5846 5850 5853 5855 5856 5857 5857 5857 5857 5857 5857 5858 5857 5857 5858 5858 5857 5857 5856 5855 5852 5850 5848 5845 5842 5840 5837 5834 5831 5828 5825 5820 5816 5813 5811 5808 5805 5801 5797 5794 5791 5789 5787
5841 5844 5847 5850 5851 5852 5852 5852 5852 5852 5852 5852 5852 5852 5853 5853 5853 5852 5851 5850 5848 5845 5843 5841 5838 5835 5833 5829 5825 5823 5819 5815 5811 5808 5805 5803 5800 5797 5794 5790 5787 5785 5784
5835 5839 5842 5845 5847 5847 5847 5847 5847 5847 5846 5846 5846 5847 5848 5849 5848 5848 5847 5845 5843 5840 5838 5835 5833 5830 5827 5824 5821 5817 5814 5810 5806 5802 5799 5797 5794 5792 5788 5785 5782 5779 5777
5829 5833 5837 5840 5842 5842 5842 5843 5842 5842 5841 5842 5842 5843 5843 5843 5843 5843 5841 5839 5837 5835 5832 5829 5827 5824 5821 5818 5815 5812 5808 5803 5800 5796 5793 5790 5787 5785 5782 5779 5776 5773 5771
5822 5826 5831 5834 5836 5837 5837 5837 5837 5837 5836 5836 5837 5837 5837 5838 5838 5837 5835 5833 5831 5828 5825 5822 5819 5817 5814 5811 5807 5804 5800 5797 5793 5789 5786 5783 5780 5776 5774 5772 5769 5767 5764
5816 5821 5826 5829 5830 5831 5831 5832 5831 5831 5830 5831 5831 5831 5832 5832 5831 5831 5829 5827 5824 5821 5818 5815 5812 5809 5806 5803 5800 5796 5792 5789 5786 5781 5778 5774 5771 5768 5764 5761 5760 5758 5757
5812 5817 5819 5821 5823 5825 5825 5826 5826 5825 5825 5826 5826 5826 5826 5825 5825 5824 5822 5819 5816 5813 5810 5807 5804 5801 5797 5795 5792 5788 5784 5781 5778 5774 5769 5766 5762 5758 5754 5751 5749 5748 5746
5804 5809 5814 5815 5817 5818 5819 5819 5819 5819 5819 5820 5820 5821 5820 5819 5818 5816 5814 5811 5808 5805 5802 5799 5796 5792 5788 5785 5782 5778 5775 5772 5768 5764 5760 5755 5751 5747 5744 5741 5738 5736 5735
5799 5803 5807 5808 5811 5812 5812 5812 5812 5812 5812 5813 5813 5813 5812 5811 5809 5808 5805 5802 5800 5797 5794 5791 5787 5783 5780 5777 5773 5770 5766 5762 5758 5754 5750 5745 5741 5736 5732 5730 5728 5725 5724
5795 5800 5802 5803 5804 5804 5805 5805 5805 5804 5804 5805 5805 5804 5804 5803 5802 5799 5797 5794 5791 5787 5784 5781 5777 5773 5770 5767 5763 5758 5754 5751 5747 5744 5738 5734 5729 5725 5722 5720 5718 5717 5714
5790 5794 5796 5797 5797 5797 5798 5798 5797 5797 5797 5797 5797 5796 5796 5795 5792 5790 5787 5784 5780 5777 5774 5771 5767 5763 5760 5756 5752 5748 5743 5739 5735 5732 5727 5723 5719 5715 5712 5709 5706 5705 5704
5786 5789 5790 5790 5789 5791 5791 5790 5790 5790 5790 5790 5789 5788 5786 5784 5782 5780 5776 5773 5770 5766 5763 5759 5756 5752 5748 5744 5740 5736 5732 5728 5724 5720 5717 5713 5709 5705 5701 5698 5696 5692 5691